Regional Weather Roundup
Issued by NWS

Home | Current Version | Previous Version | Graphics & Text | Print | Product List | Glossary On
Versions: 1 2 3 4 5 6 7 8 9 10 11 12 13 14 15 16 17 18 19 20 21 22 23 24 25 26 27 28 29 30 31 32 33 34 35 36 37 38 39 40 41 42 43 44 45 46 47 48 49 50
000
ASUS45 KTFX 281510
RWRMT
MONTANA REGIONAL WEATHER ROUNDUP
NATIONAL WEATHER SERVICE GREAT FALLS MT
900 AM MDT FRI AUG 28 2015

NOTE: "FAIR" INDICATES FEW OR NO CLOUDS BELOW 12000 FEET WITH NO
SIGNIFICANT WEATHER AND/OR OBSTRUCTIONS TO VISIBILITY.

MTZ001>007-043-281600-
WEST OF THE DIVIDE

CITY           SKY/WX    TMP DP  RH WIND       PRES   REMARKS
KALISPELL      MOSUNNY   58  47  66 CALM      30.03S SMOKE
MISSOULA       CLOUDY    53  42  66 NW3       30.10F HAZE
BUTTE          CLOUDY    47  43  86 SE3       30.25S FOG
MULLAN PASS    MOSUNNY   60  36  40 VRB5      30.17S HAZE
DEER LODGE       N/A     54  43  66 CALM      30.22F
EUREKA           N/A     66  41  39 S9        29.98F
HAMILTON         N/A     61  43  51 NW1       30.10F
LIBBY            N/A     57  43  58 CALM      30.02S
$$

MTZ008-052>055-281600-
SOUTHWEST MONTANA

CITY           SKY/WX    TMP DP  RH WIND       PRES   REMARKS
BOZEMAN        MOSUNNY   58  49  72 CALM      30.19S
DILLON         MOSUNNY   56  42  59 S7        30.23S
W YELLOWSTONE  SUNNY     48  41  76 CALM      30.36F
$$

MTZ009-010-012-014-046-048-049-054-281600-
EAST SLOPES AND CENTRAL MONTANA

CITY           SKY/WX    TMP DP  RH WIND       PRES   REMARKS
CUT BANK       CLOUDY    68  39  34 SW8       30.03S HAZE
GREAT FALLS    PTSUNNY   74  36  25 SW15      30.05R HAZE
MALMSTROM AFB  PTSUNNY   73  38  28 SW10      30.05R
HELENA         CLOUDY    61  45  55 N5        30.15R SMOKE
CONRAD           N/A     61  47  59 S2        30.06R
$$

MTZ011-013-016-021-045-047-050-051-281600-
NORTH CENTRAL MONTANA

CITY           SKY/WX    TMP DP  RH WIND       PRES   REMARKS
HAVRE          CLOUDY    65  45  48 SW10      29.98S HAZE
LEWISTOWN      PTSUNNY   71  43  36 SW3       30.10S HAZE
N BAR RANCH      N/A     73  37  27 NW12      30.13R
CHINOOK          N/A     64  46  52 W6        29.96R
FORT BENTON      N/A     68  43  40 SW5       30.02R
$$

MTZ017>020-022>027-061-062-281600-
NORTHEAST MONTANA

CITY           SKY/WX    TMP DP  RH WIND       PRES   REMARKS
GLASGOW        CLOUDY    64  53  67 W3        29.94R HAZE
JORDAN           N/A     67  46  47 SW3       29.99R
SIDNEY         SUNNY     64  59  82 S6        29.92S
WOLF POINT     SUNNY     65  54  67 W6        29.93R
MALTA            N/A     64  48  56 SW8       29.92R
PLENTYWOOD       N/A     66  54  63 CALM      29.90S
POPLAR           N/A     63  54  72 SW3       29.93R
$$

MTZ028>42-056>058-281600-
SOUTHCENTRAL AND SOUTHEAST MONTANA

CITY           SKY/WX    TMP DP  RH WIND       PRES   REMARKS
BAKER          SUNNY     70  53  54 W3        30.00S
BILLINGS       PTSUNNY   65  48  54 SW14      30.12R
LIVINGSTON     SUNNY     65  43  44 E6        30.16F
MILES CITY     MOSUNNY   71  47  42 W5        30.00R HAZE
FORSYTH          N/A     70  48  46 W7        30.02R
LAUREL           N/A     65  49  56 S6        30.10S
$$

REGIONAL REPORTS...DAKOTAS

CITY           SKY/WX    TMP DP  RH WIND       PRES   REMARKS
WILLISTON      MOSUNNY   65  60  84 S6        29.91R
MINOT          MOSUNNY   71  60  68 SW9       29.85R HAZE
DICKINSON      SUNNY     71  54  54 W10       29.93S
CROSBY           N/A     66  64  94 CALM      29.90R
BISMARCK       SUNNY     70  63  78 SW7       29.91S
GRAND FORKS    PTSUNNY   69  64  84 S10       29.87R
FARGO          SUNNY     71  64  78 S12       29.92R
BUFFALO SD       N/A     65  56  72 S3        29.95R
RAPID CITY     SUNNY     68  59  73 W7        30.04S
$$

REGIONAL REPORTS...WYOMING/IDAHO/WASHINGTON

CITY           SKY/WX    TMP DP  RH WIND       PRES   REMARKS
GILLETTE       SUNNY     71  47  42 W10       30.13S
SHERIDAN       SUNNY     70  47  43 CALM      30.13R
BUFFALO WY     SUNNY     76  39  26 W7        30.20R
CODY           SUNNY     61  48  63 N5        30.22S
YELLOWSTONE LA   N/A     49  46  90 CALM      30.45S
IDAHO FALLS    SUNNY     57  46  66 NE5       30.25R
SALMON         CLOUDY    54  45  71 CALM      30.20S
BOISE          MOSUNNY   72  39  30 CALM      30.05R
SPOKANE        CLOUDY    67  42  40 S5        29.96S
$$

REGIONAL REPORTS...ALBERTA

CITY           SKY/WX    TMP DP  RH WIND       PRES   REMARKS
EDMONTON       PTSUNNY   63  54  72 S7        29.78F
CALGARY        PTSUNNY   61  43  51 S6        29.92S SMOKE
LETHBRIDGE     CLOUDY    66  43  42 SW9       29.95S SMOKE
MEDICINE HAT   CLOUDY    66  45  45 S9        29.91S SMOKE
WATERTON GATE    N/A     64  45  48 SW7         N/A
ONEFOUR          N/A     63  41  45 NW3         N/A
$$

REGIONAL REPORTS...SASKATCHEWAN

CITY           SKY/WX    TMP DP  RH WIND       PRES   REMARKS
SWIFT CURRENT  SUNNY     63  48  59 W9        29.89R HAZE
REGINA         CLOUDY    66  61  82 VRB2      29.87S FOG
SASKATOON      MOSUNNY   61  59  94 VRB6G21   29.89R
CYPRESS HILLS    N/A     68  36  30 NW9G17      N/A
VAL MARIE        N/A     64  48  55 N1          N/A
ROCKGLEN         N/A     66  50  55 SW8         N/A
$$



USA.gov is the U.S. government's official web portal to all federal, state and local government web resources and services.